#timestamp,LO_Frequency,Hit,StdDev 
1506819615.3,286046996.5,N
1506819635.1,286046999.0,N
1506819655.9,286046998.4,N
1506819675.7,286046996.5,N
1506819695.5,286046999.2,N
1506819715.4,286046996.8,N
1506819735.2,286046997.2,N
1506819755.1,286046997.2,N
1506819756.0,286046997.2,N
1506819775.8,286046999.2,N
1506819795.6,286046999.1,N
1506819815.5,286046998.8,N
1506819835.3,286046998.2,N
1506819855.1,286046998.5,N
1506819875.9,286046998.8,N
1506819895.7,286046999.5,N
1506819915.6,286046999.4,N
1506819935.4,286046999.3,N
1506819955.2,286046998.8,N
1506819975.1,286046998.1,N
1506819976.0,286046998.1,N
1506819995.8,286046998.1,N
1506820015.7,286046998.8,N
1506820035.5,286047001.2,N
1506820055.3,286047001.1,N
1506820075.2,286047000.5,N
1506820095.0,286046998.2,N
1506820095.9,286046998.2,N
1506820115.7,286047000.6,N
1506820135.6,286046998.2,N
1506820155.4,286046998.2,N
1506820175.3,286046998.2,N
1506820195.1,286046998.5,N
1506820215.8,286047000.6,N
1506820235.7,286046998.9,N
1506820255.5,286046999.3,N
1506820275.4,286046999.1,N
1506820295.2,286046998.2,N
1506820315.0,286046998.4,N
1506820315.9,286046998.4,N
1506820335.8,286047001.0,N
1506820355.6,286046998.2,N
1506820375.5,286047000.7,N
1506820395.3,286046998.3,N
1506820415.1,286046999.4,N
1506820435.9,286046996.9,Y
1506820455.7,286046996.6,P
1506820475.5,286046999.1,N
1506820495.4,286046999.0,N
1506820515.2,286046999.1,N
1506820535.1,286046996.5,Y
1506820536.0,286046996.5,P
1506820555.8,286047001.0,N
1506820575.6,286046998.2,N
1506820595.5,286047001.2,N
1506820615.3,286047000.1,N
1506820635.2,286047001.5,N
1506820655.9,286047001.7,N
1506820675.7,286047001.7,N
1506820695.6,286047003.7,N
1506820715.4,286047003.5,N
1506820735.2,286047003.8,N
1506820755.1,286047001.7,N
1506820756.0,286047001.7,N
1506820775.8,286047001.9,N
1506820795.7,286047001.7,N
1506820815.5,286047001.8,N
1506820835.3,286047002.8,N
1506820855.2,286047002.0,N
1506820875.0,286047002.3,N
1506820875.9,286047002.3,N
1506820895.8,286047002.6,N
1506820915.6,286047001.9,N
1506820935.4,286047001.8,N
1506820955.3,286047001.6,N
1506820975.1,286047001.9,N
1506820995.8,286047004.4,N
1506821015.7,286047001.8,N
1506821035.5,286046999.9,N
1506821055.4,286047000.2,N
1506821075.2,286047000.4,N
1506821095.0,286047000.9,N
1506821095.9,286047000.9,N
1506821115.8,286046999.7,N
1506821135.6,286047001.5,N
1506821155.4,286047001.9,N
1506821175.3,286047002.8,N
1506821195.1,286047002.2,N
1506821215.9,286047002.8,N
1506821235.7,286047000.0,N
1506821255.5,286047001.2,N
1506821275.4,286046999.6,N
1506821295.2,286046999.5,N
1506821315.0,286046999.3,N
1506821316.0,286046999.3,N
1506821335.8,286046996.8,N
1506821355.6,286046996.7,N
1506821375.5,286046996.6,N
1506821395.3,286046998.7,N
1506821415.1,286046999.0,N
1506821435.9,286046999.3,N
1506821455.7,286046996.8,N
1506821475.6,286046998.9,N
1506821495.4,286046997.8,N
1506821515.2,286046996.7,N
1506821535.1,286046996.7,N
1506821536.0,286046996.7,N
1506821555.8,286046999.4,N
1506821575.6,286046998.7,N
1506821595.5,286046998.7,N
1506821615.3,286046996.9,N
1506821635.2,286046999.0,N
1506821655.9,286046999.0,N
1506821675.7,286046997.3,N
1506821695.6,286046996.6,N
1506821715.4,286046996.9,N
1506821735.2,286046999.0,N
1506821755.1,286046999.3,N
1506821756.0,286046999.3,N
1506821775.8,286046999.4,N
1506821795.7,286046996.7,N
1506821815.5,286046997.1,N
1506821835.3,286046996.9,N
1506821855.2,286046996.5,Y
1506821875.0,286046998.9,P
1506821875.9,286046998.9,N
1506821895.8,286046998.8,N
1506821915.6,286046998.7,Y
1506821935.4,286047001.2,P
1506821955.3,286047000.5,N
1506821975.1,286047000.1,N
1506821995.9,286047002.4,N
1506822015.7,286047002.0,N
1506822035.5,286047002.2,N
1506822055.4,286047004.3,Y
1506822075.2,286047001.6,P
1506822095.0,286047004.4,P
1506822095.9,286047004.4,N
1506822115.8,286047001.7,N
1506822135.6,286047001.9,N
1506822155.5,286047002.4,N
1506822175.3,286047002.1,N
1506822195.1,286047002.2,N
1506822215.9,286047001.8,N
1506822235.7,286047001.5,N
1506822255.5,286047001.5,N
1506822275.4,286047004.1,Y
1506822295.2,286047000.0,P
1506822315.1,286047002.1,N
1506822316.0,286047002.1,N
1506822335.8,286047002.6,N
1506822355.6,286047002.3,N
1506822375.5,286047002.2,N
1506822395.3,286047002.4,N
1506822415.2,286047000.1,N
1506822435.9,286046999.7,N
1506822455.7,286047002.8,N
1506822475.6,286047001.9,N
1506822495.4,286047002.0,N
1506822515.2,286047002.0,N
1506822535.1,286047002.2,N
1506822536.0,286047002.2,N
1506822555.8,286047001.6,N
1506822575.7,286047001.3,N
1506822595.5,286047001.4,N
1506822615.3,286047001.3,N
1506822635.2,286047003.7,Y
1506822655.0,286047001.9,P
1506822655.9,286047001.9,P
1506822675.8,286047002.7,P
1506822695.6,286047001.6,Y
1506822715.4,286047001.1,P
1506822735.3,286047000.8,N
1506822755.1,286047000.8,N
1506822775.8,286046999.0,N
1506822795.7,286046998.6,N
1506822815.5,286047000.8,N
1506822835.4,286046998.3,N
1506822855.2,286046998.1,N
1506822875.0,286046998.1,N
1506822875.9,286046998.1,N
1506822895.8,286046999.0,N
1506822915.6,286046999.3,N
1506822935.5,286046997.2,N
1506822955.3,286046999.4,N
1506822975.1,286046999.6,N
1506822995.9,286046999.5,N
1506823015.7,286046997.4,N
1506823035.6,286046999.4,N
1506823055.4,286046999.3,N
1506823075.2,286046996.9,N
1506823095.1,286046996.5,N
1506823096.0,286046996.5,N
1506823115.8,286046997.4,N
1506823135.6,286046999.5,N
1506823155.5,286046997.0,N
1506823175.3,286046997.3,N
1506823195.2,286046997.9,N
